| time (UTC) | temp F | wind direction | speed knots | gust knots | rain 1hr in | rain 24hr in | rain mn in | humidity % | barometer mb |
| 20260905201522 | 100 | 6 | 4.3 | 9.6 | 0.00 | 0.00 | 0.00 | 60 | 1013.5 |
| 20260905200020 | 100 | 348 | 6.1 | 12.2 | 0.00 | 0.00 | 0.00 | 59 | 1013.7 |
| 20260905194517 | 101 | 45 | 5.2 | 7.8 | 0.00 | 0.00 | 0.00 | 58 | 1013.8 |
| 20260905193018 | 101 | 28 | 4.3 | 9.6 | 0.00 | 0.00 | 0.00 | 58 | 1014.1 |
| 20260905191513 | 100 | 7 | 3.5 | 10.4 | 0.00 | 0.00 | 0.00 | 57 | 1014.3 |
| 20260905190032 | 100 | 287 | 0.9 | 6.1 | 0.00 | 0.00 | 0.00 | 60 | 1014.3 |
| 20260905184508 | 100 | 294 | 1.7 | 5.2 | 0.00 | 0.00 | 0.00 | 62 | 1014.4 |
| 20260905183005 | 99 | 347 | 0.9 | 8.7 | 0.00 | 0.00 | 0.00 | 61 | 1014.5 |
| 20260905181604 | 99 | 7 | 2.6 | 7.8 | 0.00 | 0.00 | 0.00 | 63 | 1014.8 |
| 20260905180053 | 99 | 346 | 0.9 | 6.1 | 0.00 | 0.00 | 0.00 | 66 | 1014.8 |
| 20260905174548 | 97 | 11 | 2.6 | 7.0 | 0.00 | 0.00 | 0.00 | 67 | 1015.0 |
| 20260905173042 | 97 | 40 | 2.6 | 7.0 | 0.00 | 0.00 | 0.00 | 68 | 1015.0 |
| 20260905171537 | 97 | 16 | 5.2 | 9.6 | 0.00 | 0.00 | 0.00 | 68 | 1015.2 |
| 20260905170028 | 96 | 355 | 4.3 | 7.0 | 0.00 | 0.00 | 0.00 | 69 | 1015.6 |
| 20260905164530 | 94 | 350 | 5.2 | 7.0 | 0.00 | 0.00 | 0.00 | 71 | 1015.6 |
| 20260905163017 | 94 | 340 | 0.9 | 7.8 | 0.00 | 0.00 | 0.00 | 71 | 1015.8 |
| 20260905161509 | 94 | 344 | 2.6 | 5.2 | 0.00 | 0.00 | 0.00 | 74 | 1015.9 |
| 20260905160009 | 92 | 299 | 0.9 | 7.0 | 0.00 | 0.00 | 0.00 | 75 | 1015.8 |
| 20260905154600 | 91 | 325 | 0.9 | 7.8 | 0.00 | 0.00 | 0.00 | 75 | 1015.8 |
| 20260905153101 | 90 | 7 | 0.9 | 7.8 | 0.00 | 0.00 | 0.00 | 76 | 1016.0 |
| 20260905151549 | 89 | 325 | 0.0 | 7.8 | 0.00 | 0.00 | 0.00 | 77 | 1016.1 |
| 20260905150046 | 88 | 2 | 2.6 | 7.0 | 0.00 | 0.00 | 0.00 | 78 | 1016.1 |
| 20260905144546 | 88 | 339 | 1.7 | 4.3 | 0.00 | 0.00 | 0.00 | 78 | 1016.0 |
| 20260905143040 | 87 | 341 | 1.7 | 6.1 | 0.00 | 0.00 | 0.00 | 78 | 1016.0 |
| 20260905141535 | 87 | 27 | 0.9 | 3.5 | 0.00 | 0.00 | 0.00 | 79 | 1016.0 |
| 20260905140032 | 86 | 315 | 0.0 | 2.6 | 0.00 | 0.00 | 0.00 | 79 | 1016.1 |
| 20260905134527 | 84 | 332 | 0.0 | 5.2 | 0.00 | 0.00 | 0.00 | 80 | 1016.1 |
| 20260905133029 | 83 | 275 | 0.9 | 3.5 | 0.00 | 0.00 | 0.00 | 81 | 1016.2 |
| 20260905131530 | 83 | 244 | 0.9 | 3.5 | 0.00 | 0.00 | 0.00 | 80 | 1016.0 |
| 20260905130031 | 81 | 267 | 0.0 | 0.0 | 0.00 | 0.00 | 0.00 | 81 | 1015.9 |
| 20260905124516 | 80 | 199 | 0.0 | 0.0 | 0.00 | 0.00 | 0.00 | 80 | 1015.8 |
| 20260905123010 | 0 | 0.0 | 0.0 | 0.00 | 0.00 | 0.00 | 1015.9 | ||
| 20260905121504 | 0 | 0.0 | 0.0 | 0.00 | 0.00 | 0.00 | 1015.8 | ||
| 20260905120112 | 0 | 0.0 | 0.0 | 0.00 | 0.00 | 0.00 | 1015.6 | ||
| 20260905114555 | 0 | 0.0 | 0.0 | 0.00 | 0.00 | 0.00 | 1015.6 | ||
| 20260905113049 | 0 | 0.0 | 0.0 | 0.00 | 0.00 | 0.00 | 1015.5 | ||
| 20260905111602 | 0 | 0.0 | 0.0 | 0.00 | 0.00 | 0.00 | 1015.4 | ||
| 20260905110037 | 0 | 0.0 | 0.0 | 0.00 | 0.00 | 0.00 | 1015.3 | ||
| 20260905104532 | 0 | 0.0 | 0.0 | 0.00 | 0.00 | 0.00 | 1015.1 | ||
| 20260905103029 | 0 | 0.0 | 0.0 | 0.00 | 0.00 | 0.00 | 1015.1 | ||
| 20260905101523 | 0 | 0.0 | 0.0 | 0.00 | 0.00 | 0.00 | 1015.2 | ||
| 20260905100022 | 79 | 151 | 0.0 | 1.7 | 0.00 | 0.00 | 0.00 | 85 | 1015.1 |
| 20260905094517 | 80 | 145 | 0.0 | 1.7 | 0.00 | 0.00 | 0.00 | 86 | 1015.1 |
| 20260905093014 | 80 | 152 | 0.0 | 1.7 | 0.00 | 0.00 | 0.00 | 85 | 1015.0 |
| 20260905091511 | 79 | 187 | 0.0 | 0.9 | 0.00 | 0.00 | 0.00 | 87 | 1015.0 |
| 20260905090010 | 78 | 160 | 0.0 | 0.0 | 0.00 | 0.00 | 0.00 | 87 | 1015.1 |
| 20260905084506 | 78 | 159 | 0.0 | 0.0 | 0.00 | 0.00 | 0.00 | 88 | 1015.1 |
| 20260905083104 | 78 | 159 | 0.0 | 0.0 | 0.00 | 0.00 | 0.00 | 89 | 1015.2 |
| 20260905081559 | 79 | 159 | 0.0 | 0.0 | 0.00 | 0.00 | 0.00 | 89 | 1015.2 |
| 20260905080056 | 80 | 159 | 0.0 | 0.0 | 0.00 | 0.00 | 0.00 | 89 | 1015.4 |
| 20260905074558 | 80 | 159 | 0.0 | 0.0 | 0.00 | 0.00 | 0.00 | 89 | 1015.3 |
| 20260905073100 | 80 | 159 | 0.0 | 0.0 | 0.00 | 0.00 | 0.00 | 88 | 1015.3 |
| 20260905071547 | 81 | 158 | 0.0 | 0.0 | 0.00 | 0.00 | 0.00 | 88 | 1015.4 |
| 20260905070044 | 82 | 158 | 0.0 | 0.0 | 0.00 | 0.00 | 0.00 | 87 | 1015.4 |
| 20260905064541 | 82 | 168 | 0.9 | 2.6 | 0.00 | 0.00 | 0.00 | 87 | 1015.4 |
| 20260905063039 | 82 | 156 | 0.9 | 1.7 | 0.00 | 0.00 | 0.00 | 87 | 1015.3 |
| 20260905061535 | 82 | 171 | 0.0 | 1.7 | 0.00 | 0.00 | 0.00 | 87 | 1015.5 |
| 20260905060037 | 82 | 184 | 0.0 | 0.0 | 0.00 | 0.00 | 0.00 | 87 | 1015.6 |
| 20260905054540 | 83 | 184 | 0.0 | 0.0 | 0.00 | 0.00 | 0.00 | 85 | 1015.6 |
| 20260905053025 | 83 | 156 | 0.0 | 1.7 | 0.00 | 0.00 | 0.00 | 85 | 1015.6 |
| 20260905051520 | 83 | 207 | 0.0 | 0.0 | 0.00 | 0.00 | 0.00 | 86 | 1015.6 |
| 20260905050017 | 83 | 162 | 0.0 | 0.9 | 0.00 | 0.00 | 0.00 | 86 | 1015.4 |
| 20260905044518 | 82 | 162 | 0.0 | 0.0 | 0.00 | 0.00 | 0.00 | 86 | 1015.5 |
| 20260905043012 | 83 | 162 | 0.0 | 0.0 | 0.00 | 0.00 | 0.00 | 84 | 1015.6 |
| 20260905041510 | 84 | 156 | 0.0 | 1.7 | 0.00 | 0.00 | 0.00 | 83 | 1015.6 |
| 20260905040107 | 85 | 159 | 0.9 | 2.6 | 0.00 | 0.00 | 0.00 | 83 | 1015.6 |
| 20260905034507 | 85 | 151 | 0.9 | 2.6 | 0.00 | 0.00 | 0.00 | 83 | 1015.6 |
| 20260905033005 | 86 | 169 | 0.0 | 1.7 | 0.00 | 0.00 | 0.00 | 82 | 1015.5 |
| 20260905031506 | 87 | 158 | 0.9 | 2.6 | 0.00 | 0.00 | 0.00 | 80 | 1015.6 |
| 20260905030001 | 87 | 159 | 0.9 | 2.6 | 0.00 | 0.00 | 0.00 | 79 | 1015.5 |
| 20260905024622 | 87 | 164 | 0.0 | 1.7 | 0.00 | 0.00 | 0.00 | 78 | 1015.6 |
| 20260905023110 | 87 | 163 | 0.0 | 1.7 | 0.00 | 0.00 | 0.00 | 78 | 1015.5 |
| 20260905021600 | 86 | 244 | 0.9 | 4.3 | 0.00 | 0.00 | 0.00 | 79 | 1015.2 |
| 20260905020105 | 86 | 182 | 0.0 | 0.0 | 0.00 | 0.00 | 0.00 | 79 | 1015.1 |
| 20260905014557 | 84 | 185 | 0.0 | 1.7 | 0.00 | 0.00 | 0.00 | 81 | 1014.8 |
| 20260905013051 | 85 | 277 | 0.0 | 0.0 | 0.00 | 0.00 | 0.00 | 81 | 1014.6 |
| 20260905011549 | 85 | 277 | 0.0 | 0.0 | 0.00 | 0.00 | 0.00 | 81 | 1014.5 |
| 20260905010045 | 86 | 277 | 0.0 | 0.0 | 0.00 | 0.00 | 0.00 | 80 | 1014.3 |
| 20260905004544 | 87 | 277 | 0.0 | 0.0 | 0.00 | 0.00 | 0.00 | 79 | 1014.2 |
| 20260905003041 | 89 | 277 | 0.0 | 0.0 | 0.00 | 0.00 | 0.00 | 78 | 1014.2 |
| 20260905001540 | 90 | 277 | 0.0 | 0.0 | 0.00 | 0.00 | 0.00 | 76 | 1014.1 |
| 20260905000039 | 93 | 277 | 0.0 | 0.0 | 0.00 | 0.00 | 0.00 | 72 | 1014.2 |
| 20260904234537 | 95 | 277 | 0.0 | 0.9 | 0.00 | 0.00 | 0.00 | 69 | 1014.1 |
| 20260904233040 | 96 | 292 | 0.0 | 1.7 | 0.00 | 0.00 | 0.00 | 67 | 1014.1 |
| 20260904231536 | 96 | 19 | 0.0 | 1.7 | 0.00 | 0.00 | 0.00 | 66 | 1014.0 |
| 20260904230032 | 97 | 309 | 0.0 | 4.3 | 0.00 | 0.00 | 0.00 | 65 | 1014.0 |
| 20260904224529 | 98 | 163 | 0.9 | 5.2 | 0.00 | 0.00 | 0.00 | 64 | 1014.0 |
| 20260904223030 | 100 | 268 | 0.9 | 4.3 | 0.00 | 0.00 | 0.00 | 61 | 1014.1 |
| 20260904221524 | 101 | 249 | 1.7 | 3.5 | 0.00 | 0.00 | 0.00 | 60 | 1014.1 |
| 20260904220021 | 100 | 282 | 0.0 | 3.5 | 0.00 | 0.00 | 0.00 | 61 | 1014.3 |
| 20260904214532 | 100 | 357 | 2.6 | 7.0 | 0.00 | 0.00 | 0.00 | 61 | 1014.4 |
| 20260904213030 | 101 | 251 | 0.9 | 2.6 | 0.00 | 0.00 | 0.00 | 61 | 1014.5 |
| 20260904211518 | 101 | 321 | 0.0 | 2.6 | 0.00 | 0.00 | 0.00 | 60 | 1014.8 |
| 20260904210022 | 100 | 306 | 0.0 | 7.8 | 0.00 | 0.00 | 0.00 | 59 | 1015.0 |
| 20260904204514 | 101 | 186 | 0.9 | 5.2 | 0.00 | 0.00 | 0.00 | 58 | 1015.2 |
| 20260904203006 | 99 | 246 | 1.7 | 4.3 | 0.00 | 0.00 | 0.00 | 61 | 1015.4 |